| time (UTC) | temp F | wind direction | speed MPH | gust MPH | rain 1hr in | rain 24hr in | rain mn in | humidity % | barometer mb |
| 20260503050053 | 37 | 129 | 0.0 | 0.0 | 0.00 | 0.00 | 0.00 | 99 | 1013.2 |
| 20260503045418 | 37 | 128 | 0.0 | 0.0 | 0.00 | 0.00 | 0.00 | 99 | 1013.2 |
| 20260503044845 | 38 | 128 | 0.0 | 0.0 | 0.00 | 0.00 | 0.00 | 99 | 1013.2 |
| 20260503044242 | 38 | 128 | 0.0 | 0.0 | 0.00 | 0.00 | 0.00 | 99 | 1013.2 |
| 20260503043639 | 38 | 130 | 0.0 | 0.0 | 0.00 | 0.00 | 0.00 | 99 | 1013.2 |
| 20260503043016 | 38 | 129 | 0.0 | 0.0 | 0.00 | 0.00 | 0.00 | 99 | 1013.2 |
| 20260503042443 | 38 | 130 | 0.0 | 0.0 | 0.00 | 0.00 | 0.00 | 99 | 1013.2 |
| 20260503041823 | 38 | 130 | 0.0 | 0.0 | 0.00 | 0.00 | 0.00 | 99 | 1013.2 |
| 20260503040623 | 39 | 129 | 0.0 | 0.0 | 0.00 | 0.00 | 0.00 | 99 | 1012.8 |
| 20260503040047 | 39 | 130 | 0.0 | 0.0 | 0.00 | 0.00 | 0.00 | 98 | 1012.8 |
| 20260503035451 | 39 | 129 | 0.0 | 0.0 | 0.00 | 0.00 | 0.00 | 98 | 1013.2 |
| 20260503034851 | 39 | 131 | 0.0 | 0.0 | 0.00 | 0.00 | 0.00 | 97 | 1012.8 |
| 20260503034216 | 39 | 131 | 0.0 | 0.0 | 0.00 | 0.00 | 0.00 | 97 | 1012.8 |
| 20260503033638 | 40 | 131 | 0.0 | 0.0 | 0.00 | 0.00 | 0.00 | 97 | 1012.8 |
| 20260503032419 | 40 | 131 | 0.0 | 0.0 | 0.00 | 0.00 | 0.00 | 96 | 1012.8 |
| 20260503031839 | 40 | 131 | 0.0 | 0.0 | 0.00 | 0.00 | 0.00 | 95 | 1012.5 |
| 20260503031244 | 40 | 130 | 0.0 | 0.0 | 0.00 | 0.00 | 0.00 | 95 | 1012.8 |
| 20260503030642 | 41 | 129 | 0.0 | 0.0 | 0.00 | 0.00 | 0.00 | 95 | 1012.8 |
| 20260503030024 | 41 | 138 | 0.0 | 0.0 | 0.00 | 0.00 | 0.00 | 94 | 1012.5 |
| 20260503025424 | 41 | 118 | 0.0 | 1.0 | 0.00 | 0.00 | 0.00 | 94 | 1012.5 |
| 20260503024829 | 41 | 118 | 0.0 | 0.0 | 0.00 | 0.00 | 0.00 | 93 | 1012.5 |
| 20260503024233 | 42 | 113 | 0.0 | 0.0 | 0.00 | 0.00 | 0.00 | 92 | 1012.5 |
| 20260503023618 | 42 | 112 | 0.0 | 0.0 | 0.00 | 0.00 | 0.00 | 92 | 1012.5 |
| 20260503023036 | 42 | 351 | 0.0 | 0.0 | 0.00 | 0.00 | 0.00 | 90 | 1012.1 |
| 20260503022451 | 43 | 350 | 0.0 | 0.0 | 0.00 | 0.00 | 0.00 | 89 | 1012.1 |
| 20260503021851 | 44 | 343 | 2.0 | 2.0 | 0.00 | 0.00 | 0.00 | 89 | 1012.1 |
| 20260503021241 | 44 | 133 | 0.0 | 0.0 | 0.00 | 0.00 | 0.00 | 88 | 1012.1 |
| 20260503020644 | 44 | 133 | 1.0 | 1.0 | 0.00 | 0.00 | 0.00 | 88 | 1012.1 |
| 20260503020048 | 44 | 133 | 0.0 | 0.0 | 0.00 | 0.00 | 0.00 | 88 | 1012.1 |
| 20260503014817 | 45 | 134 | 0.0 | 0.0 | 0.00 | 0.00 | 0.00 | 87 | 1012.1 |
| 20260503014252 | 45 | 134 | 0.0 | 0.0 | 0.00 | 0.00 | 0.00 | 86 | 1011.5 |
| 20260503013626 | 45 | 134 | 0.0 | 0.0 | 0.00 | 0.00 | 0.00 | 86 | 1011.5 |
| 20260503013014 | 46 | 134 | 0.0 | 0.0 | 0.00 | 0.00 | 0.00 | 85 | 1011.1 |
| 20260503011811 | 46 | 134 | 0.0 | 0.0 | 0.00 | 0.00 | 0.00 | 84 | 1011.5 |
| 20260503011231 | 47 | 134 | 0.0 | 0.0 | 0.00 | 0.00 | 0.00 | 83 | 1011.1 |
| 20260503010623 | 47 | 134 | 0.0 | 0.0 | 0.00 | 0.00 | 0.00 | 82 | 1011.5 |
| 20260503010028 | 48 | 134 | 0.0 | 0.0 | 0.00 | 0.00 | 0.00 | 80 | 1011.1 |
| 20260503005413 | 48 | 134 | 0.0 | 0.0 | 0.00 | 0.00 | 0.00 | 79 | 1011.1 |
| 20260503004843 | 49 | 134 | 0.0 | 0.0 | 0.00 | 0.00 | 0.00 | 78 | 1010.8 |
| 20260503004211 | 49 | 134 | 0.0 | 0.0 | 0.00 | 0.00 | 0.00 | 77 | 1011.1 |
| 20260503003641 | 50 | 134 | 0.0 | 0.0 | 0.00 | 0.00 | 0.00 | 74 | 1011.1 |
| 20260503003018 | 50 | 134 | 0.0 | 0.0 | 0.00 | 0.00 | 0.00 | 72 | 1010.8 |
| 20260503001815 | 51 | 135 | 1.0 | 1.0 | 0.00 | 0.00 | 0.00 | 63 | 1010.8 |
| 20260503001232 | 51 | 134 | 0.0 | 1.0 | 0.00 | 0.00 | 0.00 | 63 | 1010.8 |
| 20260503000048 | 52 | 123 | 1.0 | 2.0 | 0.00 | 0.00 | 0.00 | 61 | 1010.4 |
| 20260502235410 | 52 | 139 | 0.0 | 0.0 | 0.00 | 0.00 | 0.00 | 62 | 1010.4 |
| 20260502234841 | 52 | 122 | 2.0 | 2.0 | 0.00 | 0.00 | 0.00 | 62 | 1010.8 |
| 20260502234245 | 53 | 104 | 1.0 | 1.0 | 0.00 | 0.00 | 0.00 | 60 | 1010.8 |
| 20260502233641 | 53 | 233 | 1.0 | 1.0 | 0.00 | 0.00 | 0.00 | 59 | 1010.4 |
| 20260502232429 | 54 | 112 | 2.0 | 2.0 | 0.00 | 0.00 | 0.00 | 55 | 1010.1 |
| 20260502231840 | 54 | 191 | 1.0 | 1.0 | 0.00 | 0.00 | 0.00 | 52 | 1010.4 |
| 20260502231212 | 54 | 104 | 0.0 | 0.0 | 0.00 | 0.00 | 0.00 | 54 | 1010.4 |
| 20260502230630 | 54 | 118 | 1.0 | 1.0 | 0.00 | 0.00 | 0.00 | 52 | 1010.4 |
| 20260502230040 | 54 | 135 | 0.0 | 1.0 | 0.00 | 0.00 | 0.00 | 51 | 1010.1 |
| 20260502225434 | 54 | 81 | 2.0 | 2.0 | 0.00 | 0.00 | 0.00 | 51 | 1010.4 |
| 20260502224832 | 54 | 10 | 1.0 | 2.0 | 0.00 | 0.00 | 0.00 | 50 | 1010.4 |
| 20260502224227 | 54 | 93 | 1.0 | 1.0 | 0.00 | 0.00 | 0.00 | 50 | 1010.1 |
| 20260502223035 | 54 | 168 | 1.0 | 1.0 | 0.00 | 0.00 | 0.00 | 50 | 1010.1 |
| 20260502222421 | 54 | 59 | 2.0 | 2.0 | 0.00 | 0.00 | 0.00 | 51 | 1010.4 |
| 20260502221839 | 54 | 74 | 2.0 | 2.0 | 0.00 | 0.00 | 0.00 | 49 | 1010.4 |
| 20260502221254 | 54 | 143 | 0.0 | 1.0 | 0.00 | 0.00 | 0.00 | 50 | 1010.4 |
| 20260502220621 | 54 | 138 | 0.0 | 1.0 | 0.00 | 0.00 | 0.00 | 51 | 1010.4 |
| 20260502220030 | 55 | 314 | 2.0 | 2.0 | 0.00 | 0.00 | 0.00 | 50 | 1010.4 |
| 20260502215411 | 55 | 161 | 1.0 | 1.0 | 0.00 | 0.00 | 0.00 | 50 | 1010.4 |
| 20260502214823 | 55 | 45 | 1.0 | 2.0 | 0.00 | 0.00 | 0.00 | 49 | 1010.1 |
| 20260502213651 | 55 | 154 | 0.0 | 0.0 | 0.00 | 0.00 | 0.00 | 50 | 1010.1 |
| 20260502213041 | 55 | 142 | 0.0 | 1.0 | 0.00 | 0.00 | 0.00 | 49 | 1010.1 |
| 20260502212448 | 55 | 345 | 0.0 | 1.0 | 0.00 | 0.00 | 0.00 | 49 | 1010.1 |
| 20260502211814 | 55 | 239 | 1.0 | 1.0 | 0.00 | 0.00 | 0.00 | 47 | 1009.8 |
| 20260502211238 | 55 | 340 | 1.0 | 2.0 | 0.00 | 0.00 | 0.00 | 47 | 1010.1 |
| 20260502210627 | 55 | 292 | 2.0 | 2.0 | 0.00 | 0.00 | 0.00 | 48 | 1009.8 |
| 20260502210034 | 56 | 196 | 3.0 | 4.0 | 0.00 | 0.00 | 0.00 | 47 | 1009.8 |
| 20260502205414 | 56 | 163 | 2.0 | 3.0 | 0.00 | 0.00 | 0.00 | 47 | 1010.1 |
| 20260502204235 | 56 | 200 | 2.0 | 3.0 | 0.00 | 0.00 | 0.00 | 46 | 1009.8 |
| 20260502203612 | 55 | 262 | 1.0 | 1.0 | 0.00 | 0.00 | 0.00 | 48 | 1010.1 |
| 20260502203052 | 55 | 132 | 2.0 | 3.0 | 0.00 | 0.00 | 0.00 | 47 | 1010.4 |
| 20260502202443 | 56 | 109 | 4.0 | 6.0 | 0.00 | 0.00 | 0.00 | 48 | 1010.1 |
| 20260502201845 | 56 | 148 | 1.0 | 1.0 | 0.00 | 0.00 | 0.00 | 47 | 1010.1 |
| 20260502201211 | 56 | 222 | 2.0 | 2.0 | 0.00 | 0.00 | 0.00 | 48 | 1010.1 |
| 20260502200650 | 56 | 321 | 4.0 | 6.0 | 0.00 | 0.00 | 0.00 | 47 | 1010.1 |
| 20260502200039 | 56 | 189 | 2.0 | 3.0 | 0.00 | 0.00 | 0.00 | 47 | 1010.4 |
| 20260502195414 | 55 | 203 | 0.0 | 0.0 | 0.00 | 0.00 | 0.00 | 50 | 1010.4 |
| 20260502194838 | 56 | 151 | 2.0 | 3.0 | 0.00 | 0.00 | 0.00 | 47 | 1010.1 |
| 20260502194248 | 56 | 358 | 2.0 | 2.0 | 0.00 | 0.00 | 0.00 | 47 | 1010.1 |
| 20260502193634 | 57 | 326 | 9.0 | 10.0 | 0.00 | 0.00 | 0.00 | 45 | 1010.4 |
| 20260502193038 | 55 | 144 | 6.0 | 8.0 | 0.00 | 0.00 | 0.00 | 47 | 1010.4 |
| 20260502192426 | 55 | 182 | 14.0 | 17.0 | 0.00 | 0.00 | 0.00 | 48 | 1010.8 |
| 20260502191852 | 55 | 56 | 2.0 | 4.0 | 0.00 | 0.00 | 0.00 | 49 | 1010.4 |
| 20260502190615 | 56 | 283 | 3.0 | 4.0 | 0.00 | 0.00 | 0.00 | 46 | 1010.4 |
| 20260502190018 | 56 | 277 | 3.0 | 3.0 | 0.00 | 0.00 | 0.00 | 47 | 1010.4 |
| 20260502185437 | 56 | 354 | 2.0 | 3.0 | 0.00 | 0.00 | 0.00 | 47 | 1010.4 |
| 20260502184255 | 56 | 258 | 4.0 | 6.0 | 0.00 | 0.00 | 0.00 | 47 | 1010.8 |
| 20260502183654 | 56 | 261 | 4.0 | 6.0 | 0.00 | 0.00 | 0.00 | 48 | 1010.8 |
| 20260502183016 | 55 | 185 | 1.0 | 2.0 | 0.00 | 0.00 | 0.00 | 48 | 1011.1 |
| 20260502182440 | 55 | 333 | 4.0 | 4.0 | 0.00 | 0.00 | 0.00 | 47 | 1011.1 |
| 20260502181834 | 55 | 209 | 2.0 | 2.0 | 0.00 | 0.00 | 0.00 | 48 | 1011.1 |
| 20260502181254 | 56 | 110 | 2.0 | 3.0 | 0.00 | 0.00 | 0.00 | 48 | 1011.1 |
| 20260502180621 | 55 | 327 | 4.0 | 4.0 | 0.00 | 0.00 | 0.00 | 47 | 1011.1 |
| 20260502164244 | 55 | 291 | 6.0 | 8.0 | 0.00 | 0.00 | 0.00 | 54 | 1011.5 |
| 20260502163631 | 54 | 311 | 5.0 | 6.0 | 0.00 | 0.00 | 0.00 | 55 | 1011.5 |
| 20260502163054 | 54 | 270 | 4.0 | 4.0 | 0.00 | 0.00 | 0.00 | 54 | 1011.5 |
| 20260502162442 | 54 | 151 | 3.0 | 6.0 | 0.00 | 0.00 | 0.00 | 53 | 1011.8 |
| 20260502161816 | 54 | 345 | 2.0 | 3.0 | 0.00 | 0.00 | 0.00 | 54 | 1011.5 |
| 20260502161221 | 55 | 316 | 2.0 | 3.0 | 0.00 | 0.00 | 0.00 | 56 | 1011.5 |
| 20260502160623 | 54 | 265 | 2.0 | 2.0 | 0.00 | 0.00 | 0.00 | 58 | 1011.5 |
| 20260502151833 | 54 | 157 | 5.0 | 7.0 | 0.00 | 0.00 | 0.00 | 61 | 1011.8 |
| 20260502151241 | 54 | 313 | 4.0 | 6.0 | 0.00 | 0.00 | 0.00 | 61 | 1011.8 |
| 20260502150650 | 54 | 308 | 4.0 | 6.0 | 0.00 | 0.00 | 0.00 | 62 | 1011.8 |
| 20260502130631 | 44 | 115 | 1.0 | 1.0 | 0.00 | 0.00 | 0.00 | 99 | 1012.1 |
| 20260502123636 | 39 | 115 | 0.0 | 0.0 | 0.00 | 0.00 | 0.00 | 99 | 1012.1 |
| 20260502122440 | 38 | 139 | 1.0 | 1.0 | 0.00 | 0.00 | 0.00 | 99 | 1012.1 |
| 20260502121222 | 38 | 109 | 0.0 | 0.0 | 0.00 | 0.00 | 0.00 | 99 | 1012.1 |
| 20260502120644 | 38 | 127 | 0.0 | 0.0 | 0.00 | 0.00 | 0.00 | 99 | 1012.1 |
| 20260502115451 | 38 | 169 | 0.0 | 0.0 | 0.00 | 0.00 | 0.00 | 99 | 1011.8 |
| 20260502114813 | 38 | 164 | 1.0 | 1.0 | 0.00 | 0.00 | 0.00 | 99 | 1012.1 |
| 20260502114232 | 38 | 165 | 0.0 | 0.0 | 0.00 | 0.00 | 0.00 | 99 | 1012.1 |
| 20260502113611 | 38 | 119 | 0.0 | 1.0 | 0.00 | 0.00 | 0.00 | 99 | 1012.1 |
| 20260502113039 | 38 | 77 | 1.0 | 1.0 | 0.00 | 0.00 | 0.00 | 99 | 1012.1 |
| 20260502112437 | 38 | 104 | 0.0 | 0.0 | 0.00 | 0.00 | 0.00 | 99 | 1011.8 |
| 20260502111828 | 38 | 100 | 0.0 | 0.0 | 0.00 | 0.00 | 0.00 | 99 | 1011.8 |
| 20260502111226 | 37 | 165 | 0.0 | 0.0 | 0.00 | 0.00 | 0.00 | 99 | 1011.8 |
| 20260502110017 | 38 | 136 | 0.0 | 0.0 | 0.00 | 0.00 | 0.00 | 99 | 1011.8 |
| 20260502105418 | 37 | 133 | 0.0 | 0.0 | 0.00 | 0.00 | 0.00 | 99 | 1011.5 |
| 20260502104829 | 37 | 180 | 0.0 | 0.0 | 0.00 | 0.00 | 0.00 | 99 | 1011.8 |
| 20260502104217 | 37 | 150 | 0.0 | 0.0 | 0.00 | 0.00 | 0.00 | 99 | 1011.5 |
| 20260502103635 | 38 | 132 | 0.0 | 0.0 | 0.00 | 0.00 | 0.00 | 99 | 1011.1 |
| 20260502103043 | 38 | 132 | 1.0 | 2.0 | 0.00 | 0.00 | 0.00 | 99 | 1011.5 |
| 20260502102419 | 38 | 167 | 0.0 | 0.0 | 0.00 | 0.00 | 0.00 | 99 | 1011.5 |
| 20260502101847 | 38 | 78 | 1.0 | 1.0 | 0.00 | 0.00 | 0.00 | 99 | 1011.5 |
| 20260502100631 | 37 | 83 | 0.0 | 0.0 | 0.00 | 0.00 | 0.00 | 99 | 1011.8 |
| 20260502091252 | 38 | 83 | 0.0 | 1.0 | 0.00 | 0.00 | 0.00 | 99 | 1012.1 |
| 20260502090624 | 38 | 83 | 0.0 | 0.0 | 0.00 | 0.00 | 0.00 | 99 | 1012.5 |
| 20260502071224 | 40 | 83 | 0.0 | 0.0 | 0.00 | 0.00 | 0.00 | 99 | 1011.5 |
| 20260502070652 | 40 | 83 | 0.0 | 0.0 | 0.00 | 0.00 | 0.00 | 98 | 1011.1 |
| 20260502070035 | 40 | 83 | 0.0 | 0.0 | 0.00 | 0.00 | 0.00 | 98 | 1011.5 |
| 20260502063651 | 41 | 83 | 0.0 | 0.0 | 0.00 | 0.00 | 0.00 | 97 | 1011.5 |
| 20260502063042 | 41 | 83 | 0.0 | 0.0 | 0.00 | 0.00 | 0.00 | 96 | 1011.5 |
| 20260502061814 | 42 | 83 | 0.0 | 0.0 | 0.00 | 0.00 | 0.00 | 95 | 1011.8 |
| 20260502061249 | 42 | 83 | 0.0 | 0.0 | 0.00 | 0.00 | 0.00 | 95 | 1011.5 |
| 20260502060622 | 42 | 82 | 0.0 | 0.0 | 0.00 | 0.00 | 0.00 | 94 | 1011.8 |
| 20260502060047 | 43 | 82 | 0.0 | 0.0 | 0.00 | 0.00 | 0.00 | 93 | 1011.8 |
| 20260502055448 | 43 | 82 | 0.0 | 0.0 | 0.00 | 0.00 | 0.00 | 93 | 1012.1 |
| 20260502054820 | 43 | 83 | 0.0 | 0.0 | 0.00 | 0.00 | 0.00 | 91 | 1011.8 |
| 20260502054251 | 44 | 83 | 0.0 | 0.0 | 0.00 | 0.00 | 0.00 | 90 | 1011.8 |
| 20260502053021 | 44 | 82 | 0.0 | 0.0 | 0.00 | 0.00 | 0.00 | 88 | 1011.8 |
| 20260502052415 | 45 | 82 | 0.0 | 0.0 | 0.00 | 0.00 | 0.00 | 87 | 1011.8 |
| 20260502051826 | 45 | 82 | 0.0 | 0.0 | 0.00 | 0.00 | 0.00 | 86 | 1011.8 |
| 20260502051220 | 46 | 82 | 0.0 | 0.0 | 0.00 | 0.00 | 0.00 | 85 | 1011.8 |
| 20260502050628 | 46 | 82 | 0.0 | 0.0 | 0.00 | 0.00 | 0.00 | 85 | 1012.1 |